When you browse on this site, cookies collect data to enhance your experience and personalize the content and advertising you see.
Visit our Privacy Policy to learn more. By continuing to use the site, you agree to this use of cookies and data.
  • In Schweiz
  • Länderverzeichnis
  • Für 7 Tage
  • Wassertemperatur
  • Satellitenkarten
  • Wetterkarte
  • Widgets
  • user-avatar
    Anmelden

    Stündliche Wetter Andora

    Heute, 20 März, Mittwoch

    Zeit Temperatur Niederschläge Wind Luftdruck Luftfeuchtigkeit
    00:00 -4°C° 0 mm 2 m/S 626 mmHg 83%
    01:00 -4°C° 0 mm 2 m/S 626 mmHg 83%
    02:00 -5°C° 0 mm 3 m/S 626 mmHg 83%
    03:00 -5°C° 0 mm 3 m/S 626 mmHg 83%
    04:00 -5°C° 0 mm 2 m/S 626 mmHg 84%
    05:00 -5°C° 0 mm 2 m/S 626 mmHg 85%
    06:00 -6°C° 0 mm 2 m/S 626 mmHg 86%
    07:00 -4°C° 0 mm 2 m/S 627 mmHg 73%
    08:00 -2°C° 0 mm 2 m/S 628 mmHg 61%
    09:00 +1°C° 0 mm 2 m/S 629 mmHg 48%
    10:00 +3°C° 0 mm 2 m/S 629 mmHg 44%
    11:00 +4°C° 0 mm 2 m/S 630 mmHg 40%
    12:00 +5°C° 0 mm 2 m/S 630 mmHg 36%
    13:00 +5°C° 0 mm 2 m/S 630 mmHg 38%
    14:00 +5°C° 0 mm 2 m/S 630 mmHg 40%
    15:00 +5°C° 0 mm 2 m/S 629 mmHg 42%
    16:00 +3°C° 0 mm 2 m/S 628 mmHg 52%
    17:00 +1°C° 0 mm 2 m/S 628 mmHg 62%
    18:00 0°C° 0 mm 1 m/S 627 mmHg 72%
    19:00 -1°C° 0 mm 1 m/S 627 mmHg 75%
    20:00 -2°C° 0 mm 1 m/S 627 mmHg 78%
    21:00 -5°C° 0 mm 2 m/S 627 mmHg 81%
    22:00 -5°C° 0 mm 2 m/S 627 mmHg 77%
    23:00 -5°C° 0 mm 2 m/S 627 mmHg 73%

    Morgen, 21 März, Donnerstag

    Zeit Temperatur Niederschläge Wind Luftdruck Luftfeuchtigkeit
    00:00 -3°C° 0 mm 1 m/S 627 mmHg 69%
    01:00 -3°C° 0 mm 1 m/S 627 mmHg 69%
    02:00 -3°C° 0 mm 1 m/S 627 mmHg 69%
    03:00 -3°C° 0 mm 1 m/S 627 mmHg 69%
    04:00 -3°C° 0 mm 1 m/S 627 mmHg 69%
    05:00 -3°C° 0 mm 1 m/S 627 mmHg 69%
    06:00 -3°C° 0 mm 1 m/S 627 mmHg 69%
    07:00 0°C° 0 mm 1 m/S 628 mmHg 58%
    08:00 +3°C° 0 mm 1 m/S 629 mmHg 47%
    09:00 +5°C° 0 mm 0 m/S 631 mmHg 35%
    10:00 +7°C° 0 mm 1 m/S 631 mmHg 34%
    11:00 +8°C° 0 mm 1 m/S 631 mmHg 32%
    12:00 +9°C° 0 mm 1 m/S 631 mmHg 30%
    13:00 +9°C° 0 mm 1 m/S 631 mmHg 32%
    14:00 +9°C° 0 mm 1 m/S 631 mmHg 33%
    15:00 +9°C° 0 mm 1 m/S 630 mmHg 35%
    16:00 +7°C° 0 mm 1 m/S 629 mmHg 42%
    17:00 +5°C° 0 mm 1 m/S 628 mmHg 49%
    18:00 +1°C° 0 mm 0 m/S 627 mmHg 56%
    19:00 +1°C° 0 mm 1 m/S 627 mmHg 57%
    20:00 +1°C° 0 mm 1 m/S 628 mmHg 58%
    21:00 0°C° 0 mm 1 m/S 628 mmHg 59%
    22:00 0°C° 0 mm 1 m/S 628 mmHg 56%
    23:00 0°C° 0 mm 1 m/S 628 mmHg 54%

    übermorgen, 22 März, Freitag

    Zeit Temperatur Niederschläge Wind Luftdruck Luftfeuchtigkeit
    00:00 0°C° 0 mm 1 m/S 627 mmHg 52%
    01:00 0°C° 0 mm 1 m/S 627 mmHg 50%
    02:00 0°C° 0 mm 1 m/S 627 mmHg 48%
    03:00 0°C° 0 mm 1 m/S 627 mmHg 46%
    04:00 0°C° 0 mm 1 m/S 627 mmHg 45%
    05:00 0°C° 0 mm 1 m/S 627 mmHg 45%
    06:00 0°C° 0 mm 1 m/S 627 mmHg 44%
    07:00 +3°C° 0 mm 1 m/S 628 mmHg 40%
    08:00 +6°C° 0 mm 1 m/S 630 mmHg 35%
    09:00 +9°C° 0 mm 1 m/S 631 mmHg 31%
    10:00 +10°C° 0 mm 1 m/S 631 mmHg 30%
    11:00 +11°C° 0 mm 1 m/S 631 mmHg 30%
    12:00 +12°C° 0 mm 1 m/S 632 mmHg 30%
    13:00 +12°C° 0 mm 1 m/S 631 mmHg 31%
    14:00 +12°C° 0 mm 1 m/S 631 mmHg 33%
    15:00 +12°C° 0 mm 1 m/S 631 mmHg 35%
    16:00 +9°C° 0 mm 1 m/S 630 mmHg 43%
    17:00 +7°C° 0 mm 1 m/S 629 mmHg 50%
    18:00 +4°C° 0 mm 0 m/S 628 mmHg 58%
    19:00 +3°C° 0 mm 0 m/S 628 mmHg 61%
    20:00 +3°C° 0 mm 1 m/S 628 mmHg 63%
    21:00 +2°C° 0 mm 1 m/S 628 mmHg 66%
    22:00 +2°C° 0 mm 1 m/S 628 mmHg 65%
    23:00 +2°C° 0 mm 1 m/S 628 mmHg 64%

    23 März, Samstag

    Zeit Temperatur Niederschläge Wind Luftdruck Luftfeuchtigkeit
    00:00 +2°C° 0 mm 1 m/S 628 mmHg 63%
    01:00 +2°C° 0 mm 1 m/S 628 mmHg 62%
    02:00 +2°C° 0 mm 1 m/S 628 mmHg 61%
    03:00 +2°C° 0 mm 1 m/S 628 mmHg 60%
    04:00 +2°C° 0 mm 1 m/S 628 mmHg 59%
    05:00 +2°C° 0 mm 1 m/S 627 mmHg 59%
    06:00 +2°C° 0 mm 1 m/S 627 mmHg 58%
    07:00 +5°C° 0 mm 1 m/S 628 mmHg 50%
    08:00 +7°C° 0 mm 1 m/S 630 mmHg 42%
    09:00 +9°C° 0 mm 0 m/S 631 mmHg 34%
    10:00 +11°C° 0 mm 1 m/S 631 mmHg 33%
    11:00 +12°C° 0 mm 1 m/S 631 mmHg 32%
    12:00 +13°C° 0 mm 1 m/S 631 mmHg 31%
    13:00 +13°C° 0 mm 1 m/S 631 mmHg 32%
    14:00 +13°C° 0 mm 1 m/S 630 mmHg 33%
    15:00 +13°C° 0 mm 1 m/S 630 mmHg 34%
    16:00 +11°C° 0 mm 1 m/S 629 mmHg 42%
    17:00 +9°C° 0 mm 1 m/S 628 mmHg 50%
    18:00 +6°C° 0 mm 0 m/S 628 mmHg 57%
    19:00 +5°C° 0 mm 0 m/S 627 mmHg 61%
    20:00 +4°C° 0 mm 0 m/S 627 mmHg 65%
    21:00 +3°C° 0 mm 1 m/S 627 mmHg 69%
    22:00 +3°C° 0 mm 1 m/S 627 mmHg 70%
    23:00 +3°C° 0 mm 1 m/S 627 mmHg 71%

    24 März, Sonntag

    Zeit Temperatur Niederschläge Wind Luftdruck Luftfeuchtigkeit
    00:00 +3°C° 0 mm 1 m/S 626 mmHg 72%
    01:00 +3°C° 0 mm 1 m/S 626 mmHg 72%
    02:00 +3°C° 0 mm 1 m/S 626 mmHg 71%
    03:00 +2°C° 0 mm 1 m/S 626 mmHg 71%
    04:00 +2°C° 0 mm 1 m/S 626 mmHg 70%
    05:00 +2°C° 0 mm 1 m/S 626 mmHg 69%
    06:00 +2°C° 0 mm 1 m/S 626 mmHg 69%
    07:00 +5°C° 0 mm 1 m/S 627 mmHg 59%
    08:00 +7°C° 0 mm 0 m/S 628 mmHg 49%
    09:00 +9°C° 0 mm 0 m/S 629 mmHg 39%
    10:00 +10°C° 0 mm 0 m/S 630 mmHg 37%
    11:00 +13°C° 0 mm 1 m/S 630 mmHg 36%
    12:00 +14°C° 0 mm 1 m/S 630 mmHg 34%
    13:00 +13°C° 0 mm 1 m/S 630 mmHg 37%
    14:00 +13°C° 0 mm 1 m/S 629 mmHg 39%
    15:00 +12°C° 0 mm 1 m/S 628 mmHg 42%
    16:00 +11°C° 0.1 mm 1 m/S 628 mmHg 50%
    17:00 +9°C° 0.1 mm 1 m/S 627 mmHg 58%
    18:00 +7°C° 0.1 mm 1 m/S 626 mmHg 66%
    19:00 +6°C° 0 mm 1 m/S 626 mmHg 72%
    20:00 +5°C° 0 mm 1 m/S 626 mmHg 78%
    21:00 +4°C° 0 mm 1 m/S 626 mmHg 84%
    22:00 +3°C° 0 mm 1 m/S 626 mmHg 86%
    23:00 +3°C° 0 mm 1 m/S 626 mmHg 88%

    25 März, Montag

    Zeit Temperatur Niederschläge Wind Luftdruck Luftfeuchtigkeit
    00:00 +3°C° 0 mm 1 m/S 625 mmHg 90%
    01:00 +3°C° 0 mm 1 m/S 625 mmHg 89%
    02:00 +2°C° 0 mm 1 m/S 625 mmHg 88%
    03:00 +2°C° 0 mm 1 m/S 625 mmHg 86%
    04:00 +2°C° 0 mm 1 m/S 625 mmHg 80%
    05:00 +2°C° 0 mm 1 m/S 625 mmHg 74%
    06:00 +1°C° 0 mm 1 m/S 625 mmHg 68%
    07:00 +4°C° 0 mm 1 m/S 626 mmHg 56%
    08:00 +7°C° 0 mm 1 m/S 627 mmHg 44%
    09:00 +10°C° 0 mm 1 m/S 628 mmHg 32%
    10:00 +11°C° 0 mm 1 m/S 628 mmHg 31%
    11:00 +12°C° 0 mm 1 m/S 629 mmHg 30%
    12:00 +13°C° 0 mm 2 m/S 629 mmHg 29%
    13:00 +13°C° 0 mm 2 m/S 628 mmHg 32%
    14:00 +13°C° 0 mm 2 m/S 628 mmHg 35%
    15:00 +12°C° 0 mm 2 m/S 627 mmHg 39%
    16:00 +10°C° 0 mm 2 m/S 626 mmHg 50%
    17:00 +8°C° 0 mm 2 m/S 625 mmHg 61%
    18:00 +6°C° 0 mm 2 m/S 625 mmHg 73%
    19:00 +5°C° 0 mm 2 m/S 625 mmHg 78%
    20:00 +4°C° 0 mm 2 m/S 625 mmHg 83%
    21:00 +2°C° 0 mm 2 m/S 625 mmHg 89%
    22:00 +2°C° 0 mm 2 m/S 625 mmHg 83%
    23:00 +2°C° 0 mm 2 m/S 624 mmHg 78%
    Mehr zeigen